Joliet, IL

1:09 AM CDT on August 22, 2017 (GMT -0500)
Joliet Regional

Weather History for KJOT - January, 2013

Change the Weather History Date:

Friday, January 11, 2013

  Actual Average (KARR) Record (KARR)
Temperature  
Mean Temperature 48 °F -  
Max Temperature 53 °F 27 °F 55 °F (2012)
Min Temperature 42 °F 13 °F -5 °F (1999)
Degree Days  
Heating Degree Days 18    
Moisture  
Dew Point 48 °F    
Average Humidity 92    
Maximum Humidity 99    
Minimum Humidity 85    
Precipitation  
Precipitation 0.29 in - - ()
Sea Level Pressure  
Sea Level Pressure 29.75 in    
Wind  
Wind Speed 9 mph (SSE)    
Max Wind Speed 16 mph    
Max Gust Speed 23 mph    
Visibility 7 miles    
Events Rain    
Averages and records for this station are not official NWS values.
T = Trace of Precipitation, MM = Missing Value Source: NWS Daily Summary

Daily Weather History Graph

Daily Weather History Graph

Search for Another Location

Airport or City:

Trip Planner

Search our weather history database for the weather conditions in past years. The results will help you decide how hot, cold, wet, or windy it might be!

Date:

Astronomy

Jan. 11, 2013 Rise Set
Actual Time 7:18 AM CST 4:43 PM CST
Civil Twilight 6:47 AM CST 5:14 PM CST
Nautical Twilight 6:13 AM CST 5:48 PM CST
Astronomical Twilight 5:39 AM CST 6:22 PM CST
Moon 6:50 AM CST (1/11) 5:02 PM CST (1/11)
Length of Visible Light 10h 27m
Length of Day
9h 25m
Waning Crescent, 0% of the Moon is Illuminated
Jan 11
Waning Crescent
Jan 11
New
Jan 18
First Quarter
Jan 26
Full
Feb 3
Last Quarter

Hourly Weather History & Observations

Time (CST) Temp. Windchill Dew Point Humidity Pressure Visibility Wind Dir Wind Speed Gust Speed Precip Events Conditions
12:15 AM 42.3 °F 36.8 °F 41.7 °F 98% 29.85 in 2.5 mi ESE 9.2 mph - 0.01 in Rain Rain
12:35 AM 42.8 °F 38.6 °F 42.3 °F 98% 29.84 in 2.5 mi ESE 6.9 mph - 0.02 in Rain Light Rain
12:55 AM 43.0 °F 38.8 °F 42.4 °F 98% 29.82 in 1.8 mi ESE 6.9 mph - 0.03 in Rain Rain
1:15 AM 43.7 °F 39.1 °F 43.2 °F 98% 29.81 in 1.5 mi ESE 8.1 mph - 0.02 in Rain Heavy Rain
1:35 AM 44.6 °F 40.7 °F 44.1 °F 98% 29.79 in 1.8 mi ESE 6.9 mph - 0.08 in Rain Light Rain
1:55 AM 45.7 °F 41.0 °F 45.3 °F 99% 29.80 in 2.0 mi SE 9.2 mph - 0.08 in Rain Rain
2:15 AM 47.3 °F - 46.6 °F 97% 29.78 in 2.5 mi SE 10.4 mph - 0.04 in Rain Rain
2:35 AM 47.7 °F - 47.1 °F 98% 29.79 in 2.5 mi SE 9.2 mph - 0.06 in Rain Rain
2:55 AM 48.6 °F - 48.2 °F 99% 29.78 in 1.8 mi SSE 4.6 mph - 0.10 in Rain Rain
3:15 AM 49.1 °F - 48.6 °F 98% 29.76 in 1.8 mi SE 4.6 mph - 0.02 in Rain Heavy Rain
3:35 AM 49.3 °F - 49.1 °F 99% 29.73 in 2.5 mi SE 5.8 mph - 0.02 in   Overcast
3:55 AM 49.1 °F - 48.4 °F 97% 29.70 in 2.0 mi East 8.1 mph - 0.03 in Rain Rain
4:15 AM 49.3 °F - 48.9 °F 99% 29.67 in 2.5 mi ESE 8.1 mph - N/A Rain Light Rain
4:35 AM 50.5 °F - 50.2 °F 99% 29.68 in 3.0 mi SSE 8.1 mph - N/A   Overcast
4:55 AM 52.0 °F - 51.8 °F 99% 29.69 in 4.0 mi South 9.2 mph - N/A   Overcast
5:15 AM 52.9 °F - 52.7 °F 99% 29.69 in 3.0 mi South 9.2 mph - N/A   Overcast
5:35 AM 53.4 °F - 52.9 °F 98% 29.67 in 3.0 mi South 10.4 mph 16.1 mph N/A   Overcast
5:55 AM 53.8 °F - 53.6 °F 99% 29.67 in 2.5 mi South 9.2 mph - N/A   Overcast
6:15 AM 53.8 °F - 53.6 °F 99% 29.69 in 1.5 mi SSE 9.2 mph - 0.01 in Rain Light Rain
6:35 AM 53.6 °F - 52.9 °F 97% 29.69 in 3.0 mi SSW 10.4 mph 17.3 mph 0.04 in Rain Rain
6:55 AM 52.0 °F - 51.3 °F 97% 29.70 in 2.5 mi SSW 9.2 mph 16.1 mph 0.05 in   Heavy Drizzle
7:15 AM 51.4 °F - 50.9 °F 98% 29.71 in 4.0 mi SSW 11.5 mph - N/A   Overcast
7:35 AM 51.3 °F - 50.4 °F 97% 29.74 in 5.0 mi SSW 12.7 mph 18.4 mph N/A   Overcast
7:55 AM 51.1 °F - 49.6 °F 95% 29.74 in 10.0 mi SSW 11.5 mph 16.1 mph N/A   Overcast
8:15 AM 50.5 °F - 49.1 °F 95% 29.76 in 10.0 mi SSW 9.2 mph - N/A   Overcast
8:35 AM 50.0 °F - 48.4 °F 94% 29.76 in 10.0 mi SSW 10.4 mph 16.1 mph N/A   Overcast
8:55 AM 49.5 °F - 48.2 °F 95% 29.78 in 7.0 mi SSW 11.5 mph - N/A   Overcast
9:15 AM 48.6 °F - 47.1 °F 95% 29.78 in 7.0 mi SSW 13.8 mph 18.4 mph N/A   Overcast
9:35 AM 47.3 °F - 46.2 °F 96% 29.79 in 5.0 mi SSW 9.2 mph - N/A   Overcast
9:55 AM 47.3 °F - 45.9 °F 95% 29.79 in 7.0 mi SSW 13.8 mph 19.6 mph N/A   Overcast
10:15 AM 47.5 °F - 46.2 °F 95% 29.80 in 7.0 mi SSW 10.4 mph - N/A   Overcast
10:35 AM 47.5 °F - 46.4 °F 96% 29.80 in 5.0 mi SW 8.1 mph 16.1 mph N/A   Overcast
10:55 AM 47.7 °F - 46.4 °F 95% 29.79 in 5.0 mi SSW 8.1 mph - N/A   Overcast
11:15 AM 47.7 °F - 46.4 °F 95% 29.78 in 2.0 mi SSW 4.6 mph - N/A   Overcast
11:35 AM 47.7 °F - 46.8 °F 97% 29.78 in 1.8 mi South 5.8 mph - N/A   Overcast
11:55 AM 47.5 °F - 46.8 °F 97% 29.77 in 1.2 mi South 9.2 mph - N/A   Overcast
12:15 PM 47.8 °F - 47.1 °F 97% 29.77 in 4.0 mi South 9.2 mph 17.3 mph N/A   Overcast
12:35 PM 48.6 °F - 47.1 °F 95% 29.76 in 7.0 mi South 13.8 mph 19.6 mph N/A   Overcast
12:55 PM 49.6 °F - 47.3 °F 92% 29.76 in 10.0 mi South 8.1 mph - N/A   Overcast
1:15 PM 50.0 °F - 46.9 °F 89% 29.76 in 10.0 mi South 6.9 mph - N/A   Overcast
1:35 PM 50.0 °F - 46.9 °F 89% 29.77 in 10.0 mi South 6.9 mph - N/A   Overcast
1:55 PM 50.4 °F - 47.3 °F 89% 29.77 in 10.0 mi South 8.1 mph 16.1 mph N/A   Overcast
2:15 PM 51.3 °F - 47.7 °F 87% 29.76 in 10.0 mi South 6.9 mph - N/A   Overcast
2:35 PM 51.8 °F - 47.8 °F 86% 29.77 in 10.0 mi South 12.7 mph 16.1 mph N/A   Overcast
2:55 PM 51.8 °F - 47.7 °F 86% 29.76 in 10.0 mi South 10.4 mph 16.1 mph N/A   Overcast
3:15 PM 51.8 °F - 47.7 °F 86% 29.75 in 10.0 mi SSE 12.7 mph 17.3 mph N/A   Overcast
3:35 PM 52.0 °F - 47.5 °F 85% 29.74 in 10.0 mi SSE 11.5 mph 18.4 mph N/A   Mostly Cloudy
3:55 PM 51.1 °F - 47.5 °F 87% 29.74 in 10.0 mi SE 6.9 mph - N/A   Mostly Cloudy
4:15 PM 51.1 °F - 47.8 °F 89% 29.74 in 10.0 mi SE 9.2 mph - N/A   Scattered Clouds
4:35 PM 51.1 °F - 47.8 °F 89% 29.74 in 10.0 mi SE 9.2 mph - N/A   Clear
4:55 PM 51.3 °F - 48.2 °F 89% 29.74 in 10.0 mi SSE 8.1 mph - N/A   Clear
5:15 PM 51.4 °F - 48.4 °F 89% 29.73 in 10.0 mi SE 9.2 mph - N/A   Clear
5:35 PM 51.8 °F - 48.2 °F 88% 29.73 in 10.0 mi SSE 10.4 mph 16.1 mph N/A   Clear
5:55 PM 51.8 °F - 48.2 °F 88% 29.74 in 10.0 mi SSE 13.8 mph 19.6 mph N/A   Clear
6:15 PM 51.8 °F - 47.8 °F 86% 29.74 in 10.0 mi SSE 13.8 mph 19.6 mph N/A   Clear
6:35 PM 51.8 °F - 47.7 °F 86% 29.74 in 10.0 mi SSE 10.4 mph - N/A   Clear
6:55 PM 51.1 °F - 47.3 °F 87% 29.73 in 10.0 mi SSE 11.5 mph - N/A   Clear
7:15 PM 50.9 °F - 47.5 °F 88% 29.74 in 10.0 mi SSE 10.4 mph 18.4 mph N/A   Clear
7:35 PM 51.4 °F - 47.5 °F 86% 29.74 in 10.0 mi South 13.8 mph 23.0 mph N/A   Clear
7:55 PM 51.3 °F - 47.5 °F 87% 29.73 in 10.0 mi SSE 11.5 mph 17.3 mph N/A   Clear
8:15 PM 51.1 °F - 47.5 °F 87% 29.73 in 10.0 mi SSE 15.0 mph 20.7 mph N/A   Clear
8:35 PM 51.3 °F - 47.5 °F 87% 29.73 in 10.0 mi SSE 16.1 mph 23.0 mph N/A   Clear
8:55 PM 51.8 °F - 47.5 °F 85% 29.73 in 10.0 mi South 15.0 mph 21.9 mph N/A   Clear
9:15 PM 51.8 °F - 47.3 °F 85% 29.72 in 10.0 mi South 11.5 mph 19.6 mph N/A   Clear
9:35 PM 51.8 °F - 47.3 °F 85% 29.72 in 10.0 mi South 12.7 mph 21.9 mph N/A   Clear
9:55 PM 51.8 °F - 47.3 °F 85% 29.72 in 10.0 mi South 13.8 mph 18.4 mph N/A   Clear
10:15 PM 51.3 °F - 47.3 °F 86% 29.72 in 10.0 mi South 11.5 mph - N/A   Clear
10:35 PM 51.1 °F - 47.3 °F 87% 29.72 in 10.0 mi South 11.5 mph 18.4 mph N/A   Clear
10:55 PM 51.4 °F - 47.5 °F 86% 29.72 in 10.0 mi South 11.5 mph 20.7 mph N/A   Clear
11:15 PM 51.3 °F - 47.3 °F 86% 29.73 in 10.0 mi South 9.2 mph 19.6 mph N/A   Clear
11:35 PM 51.3 °F - 47.3 °F 86% 29.73 in 10.0 mi South 16.1 mph 21.9 mph N/A   Clear
11:55 PM 51.8 °F - 48.2 °F 88% 29.73 in 10.0 mi South 15.0 mph 20.7 mph N/A   Clear